Погода в Новых Млынах

Украина / Черниговская область     51°45′53″N   31°49′33″E
темп.,
°C
ветер,
м/с
пор.,
м/с
влажн.,
%
обл.,
%
осадки,
мм/ч
давл.,
гПа
погр.,
м
4 марта, чт
чт423:00−1зюз48890 0.0 1020202
02:00−1зюз49867 0.0 1018226
05:00−3юз511930 0.0 1015230
08:00−1юз611930 0.0 1012319
11:00+2юз6109521 0.0 1009402
14:00+4зюз6119547 0.0 1007642
17:00+4зюз4119498 0.0 1006308
20:00+2сз4109699 0.6 1006543
5 марта, пт
пт523:00+1зсз499291 0.0 1007467
02:00−1зсз379685 0.0 1009201
05:00−2сз369649 0.0 1010195
08:00−1с358575 0.0 1011321
11:00+1с336887 0.0 1013649
14:00+1с346394 0.0 10141008
17:000с3569100 0.0 1014162
20:00−2ссз3472100 0.0 1017129
6 марта, сб
сб623:00−2ссз4972100 0.0 1018525
02:00−3ссз5966100 0.0 1020619
05:00−4сз49600 0.0 1020715
08:00−3сз47553 0.0 1021654
11:00−1зсз575448 0.0 10221329
14:00−1ссз456474 0.3 10221036
17:00−1ссз356093 0.1 1022863
20:00−3зсз256746 0.1 1024162
7 марта, вс
вс723:00−3з48681 0.0 1024439
02:00−4зюз510678 0.0 1022529
05:00−3юз7146033 0.0 1019651
08:00−2зюз9166466 0.0 1016996
11:00+1зюз111762100 0.0 10121394
14:00+2з101664100 0.0 10101348
17:00+2з71474100 0.0 10091106
20:000зюз7158195 0.0 1008940
8 марта, пн
пн823:000з9167994 0.0 10071169
02:00−1зсз7137597 0.5 10081187
05:00−3зсз6126898 0.0 10091056
08:00−3зсз696662 0.0 10111031
11:00−2зсз5659100 0.0 10121087
14:00−1зсз4558100 0.0 10121270
17:00−2зсз3566100 0.1 1012890
20:00−3с2380100 0.2 1014311